[[{"header":{"parameterUnit":"m.s-1","parameterCategory":1,"la1":30.2991,"la2":30.254,"lo1":-89.0895,"lo2":-89.0444,"dy":0.0017,"dx":0.0017,"nx":28,"ny":28,"refTime":"2024-04-28T03:00:00:Z","depth":0,"parameterNumber":2,"parameterNumberName":"U-component_of_WINDS"},"data":[0,0,0,0,0,0,0,0,0,0,0,0,0,0,0,0,0,0,0,0,0,0,0,0,0,0,0,0,0,0,0,0,0,0,0,0,0,0,0,0,0,0,0,0,0,0,0,0,0,0,0,0,0,0,0,0,0,0,-8.4495,-8.4497,0,-8.4659,-8.4661,-8.4663,-8.4639,-8.4636,-8.4634,-8.4631,-8.4793,-8.48,-8.4807,0,0,0,0,0,0,0,0,0,0,0,0,0,-8.4156,-8.4163,-8.4495,-8.4497,-8.4499,-8.4659,-8.4661,-8.4663,-8.464,-8.4636,-8.4633,-8.463,-8.4791,-8.4799,-8.4808,0,0,0,0,0,0,0,0,0,0,0,0,0,-8.431,-8.4165,-8.4495,-8.4507,-8.4509,-8.4659,-8.4661,-8.4664,-8.464,-8.4636,-8.4632,-8.4628,-8.4788,-8.4798,-8.4809,-8.4954,0,0,-8.484,-8.4845,0,0,0,0,0,0,0,0,-8.4301,-8.4322,-8.4503,-8.4506,-8.451,-8.4625,-8.4601,-8.4761,-8.4641,-8.459,-8.4631,-8.4626,-8.474,-8.4754,-8.4794,-8.4962,-8.4969,-8.4841,-8.4847,-8.4852,-8.4855,0,0,0,0,0,0,0,-8.4291,-8.4315,-8.456,-8.4506,-8.451,-8.4502,-8.452,-8.4631,-8.4686,-8.4595,-8.4593,-8.4613,-8.4741,-8.4784,-8.4797,-8.4971,-8.4841,-8.485,-8.4856,-8.486,-8.5266,-8.527,0,0,0,0,0,0,-8.4278,-8.4306,-8.4555,-8.4565,-8.4393,-8.4512,-8.4531,-8.4592,-8.4685,-8.4695,-8.4617,-8.4612,-8.4768,-8.4785,-8.4803,-8.4977,-8.4852,-8.4861,-8.4867,-8.5261,-8.5267,-8.5272,0,0,0,0,0,0,-8.427,-8.43,-8.4548,-8.4435,-8.4466,-8.4522,-8.459,-8.4597,-8.464,-8.4702,-8.4711,-8.4651,-8.4766,-8.4789,-8.4917,-8.4983,-8.4866,-8.4875,-8.5256,-8.5263,-8.5269,-8.5329,0,0,0,0,0,0,-8.4261,-8.4297,-8.4354,-8.4437,-8.4473,-8.466,-8.4594,-8.4603,-8.4658,-8.4653,-8.4736,-8.4746,-8.4764,-8.4902,-8.4927,-8.4995,-8.4883,-8.525,-8.5259,-8.5267,-8.5321,-8.5337,-8.535,0,0,0,0,0,-8.4249,-8.4364,-8.4357,-8.4387,-8.4545,-8.4664,-8.4685,-8.4705,-8.4664,-8.472,-8.476,-8.4743,-8.4973,-8.4915,-8.4944,-8.5015,-8.5246,-8.5256,-8.5266,-8.5314,-8.5334,-8.535,0,0,0,0,0,0,-8.4285,-8.4375,-8.4368,-8.4514,-8.4582,-8.466,-8.4732,-8.4725,-8.4805,-8.4796,-8.4818,-8.4837,-8.4966,-8.5004,-8.4938,-8.5161,-8.5103,-8.512,-8.513,-8.5149,-8.5163,-8.5149,-8.4892,0,0,0,0,0,-8.431,-8.4401,-8.4474,-8.4596,-8.463,-8.4676,-8.4728,-8.4739,-8.4809,-8.4837,-8.4887,-8.4954,-8.5041,-8.5098,-8.5182,-8.5328,-8.5344,-8.5392,-8.5406,-8.5418,-8.543,-8.5508,-8.5529,-8.5305,-8.5305,-8.5305,0,0,-8.4362,-8.4423,-8.4478,-8.4604,-8.4658,-8.475,-8.47,-8.4799,-8.4867,-8.4852,-8.4975,-8.5015,-8.5091,-8.5229,-8.5292,-8.5264,-8.5497,-8.5431,-8.544,-8.5446,-8.5521,-8.5542,-8.5561,-8.5312,-8.5311,-8.531,0,0,-8.4503,-8.456,-8.4666,-8.4722,-8.4805,-8.4835,-8.4861,-8.4941,-8.4966,-8.5092,-8.5082,-8.5163,-8.5314,-8.5368,-8.5415,-8.558,-8.5565,-8.5607,-8.5681,-8.5757,-8.5774,-8.579,-8.5845,-8.5865,-8.562,-8.562,-8.562,0,-8.4556,-8.4696,-8.4721,-8.4822,-8.4876,-8.4871,-8.4977,-8.5029,-8.5135,-8.5172,-8.5141,-8.533,-8.5381,-8.553,-8.557,-8.5611,-8.5638,-8.5595,-8.577,-8.5786,-8.5801,-8.5854,-8.5875,-8.5624,-8.5624,-8.5624,-8.5623,0,-8.4756,-8.4853,-8.4929,-8.5032,-8.5096,-8.5199,-8.5238,-8.53,-8.5306,-8.5339,-8.5465,-8.5528,-8.5623,-8.5661,-8.5667,-8.5811,-8.5791,-8.5766,-8.5707,-8.5826,-8.5876,-8.5896,-8.563,-8.5629,-8.5628,-8.5627,0,0,-8.4919,-8.5038,-8.5065,-8.5111,-8.5204,-8.5278,-8.5382,-8.5477,-8.5528,-8.5602,-8.5686,-8.5816,-8.5793,-8.5847,-8.586,-8.5927,-8.6049,-8.5893,-8.5895,-8.5916,-8.6208,-8.6223,-8.6246,-8.6043,-8.6047,-8.605,-8.62,0,-8.5066,-8.5249,-8.5275,-8.5435,-8.5524,-8.5521,-8.561,-8.5676,-8.571,-8.5789,-8.5826,-8.5916,-8.5881,-8.5913,-8.598,-8.602,-8.6107,-8.601,-8.6118,-8.6121,-8.6094,-8.6272,-8.6289,-8.6426,-8.622,-8.6223,-8.6226,0,-8.526,-8.5341,-8.5511,-8.5591,-8.5629,-8.5709,-8.5798,-8.5875,-8.5949,-8.5969,-8.6031,-8.6036,-8.6141,-8.6083,-8.6225,-8.6159,-8.6205,-8.6232,-8.6238,-8.6244,-8.6177,-8.6279,-8.6471,-8.649,-8.6257,-8.6255,-8.6252,0,-8.5358,-8.551,-8.563,-8.5671,-8.5768,-8.5824,-8.5867,-8.5938,-8.5993,-8.6072,-8.6108,-8.6197,-8.6245,-8.6313,-8.6341,-8.6297,-8.6482,-8.6426,-8.6498,-8.6497,-8.6532,-8.6529,-8.673,-8.6571,-8.657,-8.657,-8.657,0,-8.5516,-8.5618,-8.5675,-8.5748,-8.5863,-8.5893,-8.6005,-8.6046,-8.6109,-8.6189,-8.6194,-8.6268,-8.6304,-8.6384,-8.6408,-8.652,-8.6543,-8.656,-8.6564,-8.6557,-8.6554,-8.6583,-8.6572,-8.6576,-8.6574,-8.6573,-8.6572,0,-8.5641,-8.5684,-8.5815,-8.5898,-8.5921,-8.6001,-8.6071,-8.6142,-8.6177,-8.6278,-8.6304,-8.6358,-8.6452,-8.6489,-8.6604,-8.662,-8.6749,-8.6748,-8.6724,-8.6724,-8.6792,-8.6783,-8.7014,-8.7045,-8.687,-8.6872,-8.6873,0,-8.5737,-8.5816,-8.5908,-8.5963,-8.6008,-8.6097,-8.6154,-8.6187,-8.6247,-8.6338,-8.6397,-8.6492,-8.6568,-8.6719,-8.6768,-8.6855,-8.6853,-8.6929,-8.6866,-8.6856,-8.6849,-8.6842,-8.6849,-8.6938,-8.694,-8.6942,-8.6943,0,-8.5901,-8.5918,-8.6002,-8.6093,-8.6162,-8.6235,-8.6306,-8.635,-8.6394,-8.646,-8.6558,-8.6618,-8.6736,-8.6829,-8.692,-8.6962,-8.6959,-8.6963,-8.6984,-8.6974,-8.6955,-8.6962,-8.675,-8.6956,-8.6955,-8.6954,-8.6953,-8.6953,-8.6012,-8.6081,-8.6157,-8.6249,-8.6307,-8.6373,-8.6443,-8.6488,-8.6571,-8.667,-8.6685,-8.6789,-8.6861,-8.6983,-8.703,-8.711,-8.709,-8.712,-8.7127,-8.7133,-8.7136,-8.6947,-8.7127,-8.7127,-8.7127,-8.7126,-8.7126,0,-8.6172,-8.6221,-8.6307,-8.6406,-8.6479,-8.6474,-8.6552,-8.6612,-8.6704,-8.6773,-8.6849,-8.696,-8.7051,-8.7108,-8.7199,-8.7252,-8.7253,-8.7274,-8.7268,-8.7277,-8.715,-8.7122,-8.7272,-8.7272,-8.7272,-8.7272,-8.7272,-8.7272,-8.6263,-8.638,-8.6407,-8.6552,-8.66,-8.6703,-8.6747,-8.6808,-8.6863,-8.6987,-8.7063,-8.7101,-8.7165,-8.726,-8.7343,-8.7357,-8.7388,-8.7411,-8.7423,-8.7302,-8.7287,-8.7272,-8.7245,-8.7419,-8.7419,-8.7543,-8.7544,-8.7545]},{"header":{"parameterUnit":"m.s-1","parameterCategory":1,"la1":30.2991,"la2":30.254,"lo1":-89.0895,"lo2":-89.0444,"dy":0.0017,"dx":0.0017,"nx":28,"ny":28,"refTime":"2024-04-28T03:00:00:Z","depth":0,"parameterNumber":3,"parameterNumberName":"V-component_of_WINDS"},"data":[0,0,0,0,0,0,0,0,0,0,0,0,0,0,0,0,0,0,0,0,0,0,0,0,0,0,0,0,0,0,0,0,0,0,0,0,0,0,0,0,0,0,0,0,0,0,0,0,0,0,0,0,0,0,0,0,0,0,5.3531,5.3531,0,5.3608,5.3609,5.361,5.3595,5.3594,5.3593,5.3591,5.3665,5.3668,5.3672,0,0,0,0,0,0,0,0,0,0,0,0,0,5.3367,5.337,5.3531,5.3532,5.3533,5.3608,5.3609,5.361,5.3596,5.3594,5.3592,5.3591,5.3664,5.3668,5.3672,0,0,0,0,0,0,0,0,0,0,0,0,0,5.3441,5.3371,5.353,5.3535,5.3536,5.3607,5.3609,5.361,5.3596,5.3594,5.3592,5.359,5.3663,5.3668,5.3672,5.3743,0,0,5.3687,5.3689,0,0,0,0,0,0,0,0,5.3436,5.3446,5.3533,5.3534,5.3536,5.359,5.3578,5.3654,5.3596,5.3573,5.3591,5.3589,5.3642,5.3648,5.3667,5.3747,5.375,5.3688,5.3691,5.3693,5.3694,0,0,0,0,0,0,0,5.3431,5.3443,5.3561,5.3534,5.3536,5.3531,5.354,5.3593,5.3617,5.3575,5.3574,5.3584,5.3642,5.3662,5.3668,5.3751,5.3688,5.3692,5.3695,5.3697,5.3894,5.3896,0,0,0,0,0,0,5.3426,5.3439,5.3558,5.3563,5.348,5.3536,5.3545,5.3575,5.3617,5.3622,5.3585,5.3583,5.3655,5.3663,5.3671,5.3757,5.3693,5.3697,5.37,5.3892,5.3894,5.3897,0,0,0,0,0,0,5.3422,5.3436,5.3555,5.3501,5.3516,5.3541,5.3574,5.3577,5.3597,5.3625,5.3629,5.3602,5.3654,5.3664,5.3726,5.3759,5.3699,5.3704,5.3889,5.3892,5.3896,5.3929,0,0,0,0,0,0,5.3417,5.3435,5.3463,5.3502,5.3519,5.361,5.3576,5.358,5.3606,5.3604,5.3641,5.3646,5.3653,5.3719,5.3731,5.3765,5.3708,5.3886,5.389,5.3895,5.3925,5.3934,5.3941,0,0,0,0,0,5.3412,5.3468,5.3464,5.3479,5.3554,5.3612,5.3622,5.363,5.3609,5.3637,5.3655,5.3644,5.3754,5.3725,5.3739,5.3775,5.3884,5.3889,5.3894,5.3922,5.3932,5.3941,0,0,0,0,0,0,5.343,5.3473,5.3469,5.354,5.3573,5.361,5.3645,5.364,5.3678,5.3674,5.3682,5.369,5.3753,5.377,5.3737,5.3846,5.3816,5.3824,5.3832,5.3842,5.385,5.3844,5.3712,0,0,0,0,0,5.3443,5.3488,5.3522,5.3581,5.3598,5.3619,5.3644,5.3649,5.3682,5.3695,5.3717,5.3749,5.379,5.3817,5.3857,5.3929,5.3936,5.396,5.3968,5.3974,5.398,5.402,5.4031,5.3914,5.3914,5.3914,0,0,5.3468,5.3498,5.3525,5.3586,5.3611,5.3657,5.363,5.3679,5.3712,5.3701,5.3762,5.378,5.3815,5.3883,5.3913,5.3899,5.4015,5.3981,5.3985,5.3988,5.4026,5.4037,5.4047,5.3918,5.3917,5.3916,0,0,5.3538,5.3565,5.3618,5.3645,5.3686,5.3699,5.3712,5.375,5.3762,5.3824,5.3817,5.3856,5.3928,5.3954,5.3976,5.4059,5.4051,5.4072,5.4111,5.415,5.4159,5.4167,5.4197,5.4207,5.4079,5.4079,5.4079,0,5.3564,5.3634,5.3645,5.3695,5.3722,5.3718,5.3771,5.3796,5.3846,5.3864,5.3848,5.3939,5.3963,5.4036,5.4057,5.4076,5.409,5.4067,5.4157,5.4165,5.4173,5.4201,5.4212,5.4081,5.4081,5.4081,5.408,0,5.3664,5.3713,5.375,5.3802,5.3833,5.3884,5.3902,5.3932,5.3935,5.395,5.4013,5.4042,5.4088,5.4106,5.4107,5.418,5.417,5.4155,5.4125,5.4186,5.4213,5.4224,5.4084,5.4084,5.4083,5.4082,0,0,5.3745,5.3805,5.3818,5.3842,5.3888,5.3924,5.3976,5.4023,5.4049,5.4084,5.4127,5.4189,5.4177,5.4202,5.4207,5.4241,5.4305,5.4223,5.4224,5.4237,5.4387,5.4397,5.4409,5.4301,5.4303,5.4305,5.4384,0,5.382,5.3912,5.3924,5.4005,5.405,5.4048,5.4092,5.4125,5.4141,5.418,5.4198,5.4242,5.4222,5.4238,5.4272,5.429,5.4335,5.4285,5.4339,5.4341,5.433,5.4423,5.4434,5.4507,5.4394,5.4396,5.4398,0,5.3918,5.3959,5.4045,5.4086,5.4105,5.4145,5.419,5.4228,5.4265,5.4274,5.4305,5.4306,5.4358,5.4327,5.4399,5.4364,5.4388,5.44,5.4403,5.4408,5.4372,5.4429,5.4531,5.4541,5.4414,5.4413,5.4411,0,5.3968,5.4045,5.4107,5.4127,5.4176,5.4205,5.4226,5.4261,5.4289,5.4328,5.4346,5.439,5.4414,5.4448,5.4461,5.4437,5.4532,5.4502,5.454,5.454,5.4559,5.4558,5.4665,5.4576,5.4576,5.4576,5.4575,0,5.4049,5.4102,5.413,5.4168,5.4227,5.4241,5.4299,5.4319,5.4351,5.4391,5.4392,5.443,5.4445,5.4486,5.4496,5.4554,5.4565,5.4573,5.4575,5.4573,5.4572,5.4587,5.4582,5.4578,5.4578,5.4577,5.4577,0,5.4114,5.4136,5.4203,5.4245,5.4257,5.4299,5.4334,5.4371,5.4388,5.444,5.4453,5.4479,5.4527,5.4544,5.4601,5.4608,5.4675,5.4673,5.4664,5.4664,5.4701,5.4697,5.4821,5.4838,5.4739,5.474,5.4741,0,5.4164,5.4205,5.4253,5.4281,5.4305,5.435,5.438,5.4396,5.4426,5.4472,5.4503,5.4551,5.459,5.4667,5.469,5.4734,5.4733,5.4774,5.4739,5.4736,5.4733,5.473,5.4734,5.4779,5.478,5.4781,5.4782,0,5.425,5.4259,5.4303,5.4351,5.4387,5.4424,5.4461,5.4484,5.4505,5.4539,5.4589,5.462,5.4681,5.4728,5.4774,5.4795,5.4792,5.4793,5.4804,5.4801,5.4794,5.4798,5.468,5.4789,5.4789,5.4788,5.4788,5.4787,5.4309,5.4346,5.4386,5.4434,5.4464,5.4499,5.4536,5.4558,5.4601,5.4653,5.4659,5.4713,5.475,5.4811,5.4835,5.4876,5.4865,5.4881,5.4885,5.4889,5.4891,5.4789,5.4885,5.4884,5.4884,5.4884,5.4884,0,5.4395,5.4421,5.4466,5.4518,5.4557,5.4553,5.4594,5.4626,5.4674,5.4709,5.4749,5.4807,5.4854,5.4882,5.4929,5.4957,5.4957,5.4968,5.4966,5.4971,5.4899,5.4885,5.4968,5.4968,5.4968,5.4968,5.4968,5.4968,5.4444,5.4506,5.452,5.4597,5.4623,5.4677,5.4701,5.4733,5.4761,5.4827,5.4866,5.4885,5.4918,5.4967,5.501,5.5017,5.5034,5.5047,5.5052,5.4984,5.4976,5.4967,5.4954,5.505,5.5051,5.5121,5.5121,5.5122]}]]